Flag for France Weather past 2 weeks in Nancy, France

Now
64 °F

Sunny.


Feels Like: 64 °F
Forecast: 49 / 72 °F
Wind: 9 mph from Northeast

Location: Nancy / Ochey

Current Time: May 23, 2015 at 3:55:53 PM

Latest Report: May 23, 2015 at 3:00 PM


Visibility: 10 mi

Pressure: 30.09 "Hg

Humidity: 49%

Dew point: 45 °F

Location of NancyLocation

Historic Weather in Nancy — Graph

°F

Nancy temperature yesterday

Maximum temperature yesterday: 64 °F (at 3:30 PM)
Minimum temperature yesterday: 41 °F (at 5:30 AM)
Average temperature yesterday: 55 °F

Past Weeks' High & Low Weather Summary

 TemperatureHumidityPressure
High81 °F (May 12, 3:00 PM)100% (May 14, 12:30 PM)30.36 "Hg (May 14, 12:30 PM)
Low37 °F (May 21, 3:30 AM)33% (May 18, 5:00 PM)29.77 "Hg (May 18, 5:30 PM)
Average57 °F71%30.11 "Hg
* Reported May 8 2:00 PM — May 23 2:30 PM, Nancy, Weather by CustomWeather, © 2015

Note: Actual official high and low records may vary slightly from our data, if they occured in-between our weather recording intervals... More about our weather records

Advertising

Nancy weather history for previous 24 hours

 ConditionsComfort  
Time TempWeatherWind HumidityBarometerVisibility
2:30 PM
Sat, May 23
64 °FPassing clouds.7 mph49%30.09 "HgN/A
2:00 PM64 °FPassing clouds.10 mph49%30.09 "HgN/A
1:30 PM64 °FPassing clouds.9 mph46%30.09 "HgN/A
1:00 PM64 °FOvercast.9 mph49%30.12 "HgN/A
12:30 PM64 °FPassing clouds.7 mph56%30.12 "HgN/A
12:00 PM63 °FPassing clouds.8 mph59%30.12 "HgN/A
11:30 AM63 °FPassing clouds.6 mph59%30.12 "HgN/A
11:00 AM63 °FPassing clouds.5 mph59%30.12 "HgN/A
10:30 AM59 °FPassing clouds.5 mph68%30.12 "HgN/A
10:00 AM57 °FSunny.6 mph67%30.15 "Hg10 mi
9:30 AM57 °FPassing clouds.5 mph67%30.15 "HgN/A
9:00 AM54 °FPassing clouds.5 mph77%30.15 "HgN/A
8:30 AM54 °FPassing clouds.3 mph77%30.12 "HgN/A
8:00 AM52 °FSunny.3 mph82%30.12 "Hg10 mi
7:30 AM50 °FSunny.3 mph88%30.12 "Hg10 mi
7:00 AM50 °FSunny.2 mph88%30.12 "Hg10 mi
6:30 AM50 °FClear.1 mph88%30.12 "Hg10 mi
6:00 AM50 °FClear.2 mph88%30.12 "Hg10 mi
5:30 AM50 °FClear.1 mph82%30.12 "Hg10 mi
5:00 AM48 °FClear.1 mph87%30.12 "Hg10 mi
4:30 AM48 °FClear.No wind87%30.12 "Hg10 mi
4:00 AM50 °FClear.No wind82%30.12 "Hg10 mi
3:30 AM50 °FClear.2 mph82%30.12 "Hg10 mi
3:00 AM52 °FClear.3 mph77%30.15 "Hg10 mi
2:30 AM54 °FClear.5 mph72%30.15 "Hg10 mi
2:00 AM54 °FClear.5 mph72%30.15 "Hg10 mi
1:30 AM54 °FClear.3 mph72%30.15 "Hg10 mi
1:00 AM54 °FClear.6 mph72%30.18 "Hg10 mi
12:30 AM55 °FClear.3 mph72%30.18 "Hg10 mi
12:00 AM55 °FClear.No wind67%30.18 "Hg10 mi
11:30 PM
Fri, May 22
57 °FClear.1 mph63%30.18 "Hg10 mi
11:00 PM57 °FClear.2 mph63%30.18 "Hg10 mi
10:30 PM57 °FClear.3 mph63%30.18 "Hg10 mi
10:00 PM59 °FSunny.3 mph59%30.18 "Hg10 mi
9:30 PM57 °FSunny.3 mph63%30.18 "Hg10 mi
9:00 PM59 °FSunny.3 mph59%30.18 "Hg10 mi
8:30 PM61 °FSunny.3 mph52%30.18 "Hg10 mi
8:00 PM63 °FSunny.5 mph49%30.18 "Hg10 mi
7:30 PM63 °FSunny.8 mph45%30.18 "Hg10 mi
7:00 PM63 °FSunny.7 mph45%30.18 "Hg10 mi
6:30 PM64 °FPassing clouds.9 mph46%30.18 "HgN/A
6:00 PM64 °FPassing clouds.8 mph43%30.21 "HgN/A
5:30 PM64 °FPassing clouds.8 mph46%30.21 "HgN/A
5:00 PM64 °FPassing clouds.10 mph43%30.21 "HgN/A
4:30 PM64 °FPassing clouds.8 mph43%30.21 "HgN/A
4:00 PM64 °FPassing clouds.9 mph40%30.24 "HgN/A
3:30 PM64 °FSunny.6 mph40%30.24 "Hg10 mi
3:00 PM63 °FSunny.8 mph42%30.24 "Hg10 mi
Weather by CustomWeather, © 2015

See weather overviewHow to use our weather pages